Find Starlink 32716

NORAD ID: 63031 Int'l Des: 2025-034 Owner: SPXS Country: US Constellation: starlink operational
LEOCIRCULAR

現在のビュー

3D地球を読み込み中...

About Starlink 32716

Starlink 32716 (NORAD 63031) is a starlink constellation satellite (v2 mini) launched Feb 18, 2025 by SPXS of US. It operates in LEO, CIRCULAR orbit with a mass of 730.00 kg.

次回通過

Passes for default location (London). Set your location on the main map for personalized predictions.

高度履歴

Loading altitude history...

軌道要素

1 63031U 25034C 26263.93211384 .00019571 00000-0 58928-3 0 9995
2 63031 53.1581 67.3900 0001208 121.3612 238.7509 15.34376053 89031
Epoch: Sep 20, 2026 • Age: 9 hours

現在のステータス

高度 471.0 km
遠地点 / 近地点 N/A
速度 7.63 km/s
衛星直下点 -25.63°S, 69.68°W
打ち上げ日 Feb 18, 2025
運用期間 1.5 years
タイプ internet

技術仕様

分類 Payload
質量 730.00 kg
乾燥質量 700.00 kg
長さ 0.30 m
スパン 29.00 m
形状 ? Box + pan
製造者 SPXS
バスタイプ Starlink V2M
フェーズステータス In Orbit
所有者/国 SPXS/US

Most Searched